This is the latest recevied weather packets stored in our database for station/object 9W2RUT-G. If no packets are shown the sender has not sent any weather packets the latest 1 day(s).
| Time | Temp. | Humidity | Pressure | Rain* | Wind** | Luminosity | Snow |
|---|---|---|---|---|---|---|---|
| 1778077843 | 26.11° C | 35% | 1012.9 hPa | - | - | - | - |
| 1778074242 | 27.78° C | 30% | 1012.3 hPa | - | - | - | - |
| 1778070641 | 30.56° C | 35% | 1010.8 hPa | - | - | - | - |
| 1778067940 | 30.56° C | 38% | 1010.6 hPa | - | - | - | - |
| 1778066139 | 30.56° C | 33% | 1008.9 hPa | - | - | - | - |
| 1778065239 | 32.22° C | 32% | 1009.5 hPa | - | - | - | - |
| 1778064338 | 35° C | 39% | 1010.3 hPa | - | - | - | - |
| 1778063438 | 35° C | 42% | 1010 hPa | - | - | - | - |
| 1778062538 | 35.56° C | 43% | 1009.6 hPa | - | - | - | - |
| 1778060737 | 35.56° C | 46% | 1010.1 hPa | - | - | - | - |
| 1778059836 | 35.56° C | 46% | 1010.1 hPa | - | - | - | - |
| 1778058936 | 35.56° C | 46% | 1009.9 hPa | - | - | - | - |
| 1778057134 | 36.11° C | 46% | 1009.8 hPa | - | - | - | - |
| 1778056234 | 35.56° C | 47% | 1009.7 hPa | - | - | - | - |
| 1778055333 | 35.56° C | 48% | 1009.8 hPa | - | - | - | - |
| 1778054433 | 35.56° C | 48% | 1009.6 hPa | - | - | - | - |
| 1778052632 | 35.56° C | 49% | 1009.5 hPa | - | - | - | - |
| 1778051732 | 35.56° C | 47% | 1009.2 hPa | - | - | - | - |
| 1778050832 | 35.56° C | 48% | 1009.4 hPa | - | - | - | - |
| 1778049932 | 35.56° C | 47% | 1009.9 hPa | - | - | - | - |
| 1778047231 | 34.44° C | 47% | 1010.7 hPa | - | - | - | - |
| 1778046330 | 34.44° C | 49% | 1011 hPa | - | - | - | - |
| 1778043629 | 33.89° C | 48% | 1011.9 hPa | - | - | - | - |
| 1778042729 | 33.89° C | 49% | 1012.1 hPa | - | - | - | - |
| 1778041829 | 32.78° C | 51% | 1012.3 hPa | - | - | - | - |
* Rain since midnight (hover to see other rain measurements)
** Current wind speed in m/s (hover to see current wind gust speed)